This demonstration page uses our WeatherBlox Daily Observations layout. Learn more.

Left ArrowRight Arrow

39.01783, -85.05884

Hourly Observations for June 12, 2018

Temp ( °F °C ) Dew Point ( °F °C ) Humidity (%) Winds ( mph kmh ) Pressure ( in mb ) Visibility ( mi km ) Precip ( " mm )
12:52 am 00:52 Mostly Cloudy 71 21.7 67 19.4 87 87 ESE 8 13 29.94 1014 10 16 N/A
1:52 am 01:52 Cloudy 71 21.7 67 19.4 87 87 SE 13 20 29.94 1014 10 16 N/A
2:52 am 02:52 Cloudy 70 21.1 68 20 93 93 SSE 9 15 29.93 1014 10 16 0.01 0.25
4:52 am 04:52 Cloudy with Light Rain 67 19.4 64 17.8 91 91 E 8 13 29.92 1013 8 13 0.03 0.76
5:23 am 05:23 Cloudy with Light Rain 67 19.4 66 18.9 97 97 ESE 6 9 29.91 1013 10 16 N/A
5:37 am 05:37 Cloudy 68 20 67 19.4 96 96 SE 6 9 29.91 1013 10 16 N/A
5:52 am 05:52 Cloudy 68 20 68 20 100 100 SSE 7 11 29.92 1013 10 16 N/A
6:24 am 06:24 Mostly Cloudy 69 20.6 68 20 96 96 SSE 12 19 29.91 1013 10 16 N/A
6:52 am 06:52 Mostly Cloudy 69 20.6 68 20 96 96 S 8 13 29.92 1013 10 16 N/A
6:59 am 06:59 Cloudy 69 20.6 69 20.6 100 100 S 8 13 29.91 1013 10 16 N/A
7:14 am 07:14 Mostly Cloudy 69 20.6 69 20.6 100 100 S 5 7 29.94 1014 10 16 N/A
7:52 am 07:52 Mostly Cloudy 70 21.1 67 19.4 90 90 SSE 5 7 29.94 1014 10 16 N/A
8:30 am 08:30 Cloudy 72 22.2 67 19.4 84 84 S 9 15 29.94 1014 10 16 N/A
8:52 am 08:52 Cloudy 71 21.7 67 19.4 87 87 S 6 9 29.95 1014 10 16 N/A
9:28 am 09:28 Cloudy 71 21.7 67 19.4 87 87 SSW 7 11 29.97 1015 10 16 N/A
9:52 am 09:52 Cloudy 72 22.2 68 20 87 87 SW 5 7 29.97 1015 10 16 N/A
10:15 am 10:15 Cloudy 72 22.2 68 20 87 87 S 7 11 29.97 1015 10 16 N/A
10:52 am 10:52 Cloudy 72 22.2 68 20 87 87 SSW 6 9 29.97 1015 10 16 N/A
11:52 am 11:52 Cloudy 74 23.3 68 20 82 82 SW 12 19 29.98 1015 10 16 N/A
12:07 pm 12:07 Mostly Cloudy 75 23.9 68 20 79 79 SW 13 20 29.97 1015 10 16 N/A
12:52 pm 12:52 Cloudy 77 25 69 20.6 77 77 SSW 14 22 29.98 1015 10 16 N/A
1:52 pm 13:52 Mostly Cloudy 78 25.6 68 20 71 71 SW 10 17 29.95 1014 10 16 N/A
2:52 pm 14:52 Mostly Cloudy 76 24.4 65 18.3 69 69 SSW 14 22 29.93 1014 10 16 N/A
3:52 pm 15:52 Cloudy 76 24.4 66 18.9 72 72 SW 9 15 29.94 1014 10 16 N/A
4:52 pm 16:52 Mostly Cloudy 80 26.7 67 19.4 64 64 SSW 8 13 29.90 1013 10 16 N/A
5:52 pm 17:52 Mostly Cloudy 79 26.1 63 17.2 58 58 WSW 5 7 29.91 1013 10 16 N/A
6:52 pm 18:52 Cloudy 77 25 68 20 74 74 N 8 13 29.89 1012 10 16 N/A
7:52 pm 19:52 Mostly Cloudy 76 24.4 68 20 77 77 NE 7 11 29.89 1012 10 16 N/A
8:52 pm 20:52 Mostly Cloudy 74 23.3 68 20 82 82 E 5 7 29.89 1012 10 16 N/A
9:52 pm 21:52 Mostly Cloudy with Thunderstorms 74 23.3 69 20.6 85 85 E 6 9 29.88 1012 10 16 0.02 0.51
10:14 pm 22:14 Cloudy with Light Rain 73 22.8 70 21.1 90 90 VRB 3 6 29.91 1013 6 10 0.01 0.25
10:25 pm 22:25 Cloudy with Nearby Thunderstorms 73 22.8 70 21.1 90 90 N N/A 29.91 1013 3 5 0.04 1.02
10:52 pm 22:52 Cloudy with Thunderstorms 73 22.8 71 21.7 94 94 W 6 9 29.92 1013 7 11 0.05 1.27
11:52 pm 23:52 Cloudy with Thunderstorms 72 22.2 71 21.7 97 97 S 7 11 29.93 1014 4 6 0.07 1.78

Powered by AerisWeather